Location: *
(38.9555°S, 57.3572°E)
Time: 01:48:27
(UTC+00:00)

ARGOS Delta rocket - Pass Details

Date: 15 July 2020
Orbit: 636 x 837 km, 96.4° (Epoch: 06 August)

Event Time Altitude Azimuth Distance (km) Brightness Sun altitude
Exits shadow 14:23:15 - 162° (SSE) 2,420 6.3 -14.5°
Reaches altitude 10° 14:24:10 10° 160° (SSE) 2,058 5.9 -14.7°
Maximum altitude 14:28:32 55° 82° (E) 787 3.7 -15.5°
Drops below altitude 10° 14:32:57 10° 4° (N) 2,068 6.4 -16.3°
Sets 14:35:13 0° 359° (N) 2,992 7.3 -16.7°
